This is the latest recevied weather packets stored in our database for station/object WA3NOA-2. If no packets are shown the sender has not sent any weather packets the latest 10 day(s).
| Time | Temp. | Humidity | Pressure | Rain* | Wind** | Luminosity | Snow |
|---|---|---|---|---|---|---|---|
| 1778163488 | 14.44° C | 69% | 1005.7 hPa | 0.25 mm | - | - | - |
| 1778163427 | 13.89° C | 69% | 1005.6 hPa | 0.25 mm | - | - | - |
| 1778163127 | 13.33° C | 69% | 1005.6 hPa | 0.25 mm | - | - | - |
| 1778162827 | 12.78° C | 72% | 1005.6 hPa | 0.25 mm | - | - | - |
| 1778162588 | 12.22° C | 75% | 1005.6 hPa | 0 mm | - | - | - |
| 1778162526 | 12.22° C | 73% | 1005.6 hPa | 0 mm | - | - | - |
| 1778162227 | 12.22° C | 73% | 1005.6 hPa | 0 mm | - | - | - |
| 1778161927 | 12.22° C | 75% | 1005.8 hPa | 0 mm | - | - | - |
| 1778161687 | 11.67° C | 73% | 1005.7 hPa | 0 mm | - | - | - |
| 1778161626 | 11.67° C | 72% | 1005.7 hPa | 0 mm | - | - | - |
| 1778161326 | 11.67° C | 72% | 1005.7 hPa | 0 mm | - | - | - |
| 1778161026 | 11.67° C | 72% | 1005.8 hPa | 0 mm | - | - | - |
| 1778160788 | 11.67° C | 77% | 1005.9 hPa | 0 mm | - | - | - |
| 1778160726 | 11.67° C | 76% | 1005.9 hPa | 0 mm | - | - | - |
| 1778160426 | 11.11° C | 77% | 1006 hPa | 0 mm | - | - | - |
| 1778160126 | 11.11° C | 78% | 1005.9 hPa | 0 mm | - | - | - |
| 1778159888 | 10.56° C | 79% | 1005.9 hPa | 0.25 mm | - | - | - |
| 1778159827 | 10.56° C | 79% | 1005.9 hPa | 0.25 mm | - | - | - |
| 1778159526 | 10.56° C | 82% | 1005.8 hPa | 0.25 mm | - | - | - |
| 1778159226 | 10.56° C | 81% | 1005.7 hPa | 0.25 mm | - | - | - |
| 1778158988 | 10.56° C | 83% | 1005.8 hPa | 0.25 mm | - | - | - |
| 1778158926 | 10.56° C | 84% | 1005.8 hPa | 0.25 mm | - | - | - |
| 1778158627 | 10.56° C | 86% | 1005.8 hPa | 0.25 mm | - | - | - |
| 1778158327 | 10° C | 84% | 1005.8 hPa | 0.25 mm | - | - | - |
| 1778158088 | 10° C | 88% | 1005.7 hPa | 0.25 mm | - | - | - |
* Rain latest hour (hover to see other rain measurements)
** Current wind speed in m/s (hover to see current wind gust speed)